TimeEDT,TemperatureF,Dew PointF,Humidity,Sea Level PressureIn,VisibilityMPH,Wind Direction,Wind SpeedMPH,Gust SpeedMPH,PrecipitationIn,Events,Conditions,WindDirDegrees,DateUTC
12:53 AM,54.0,51.1,90,29.62,7.0,NNE,10.4,18.4,0.06,Rain,Light Rain,30,2013-06-14 04:53:00
1:53 AM,53.1,51.1,93,29.63,8.0,NNE,8.1,-,0.10,Rain,Light Rain,30,2013-06-14 05:53:00
2:53 AM,53.1,50.0,89,29.65,7.0,NNE,12.7,21.9,0.08,Rain,Light Rain,30,2013-06-14 06:53:00
3:31 AM,51.8,50.0,94,29.67,9.0,NNE,10.4,16.1,0.03,Rain,Light Rain,20,2013-06-14 07:31:00
3:53 AM,53.1,50.0,89,29.68,10.0,NNE,8.1,-,0.04,,Overcast,20,2013-06-14 07:53:00
4:53 AM,53.1,48.9,86,29.69,10.0,NNE,10.4,17.3,N/A,,Overcast,20,2013-06-14 08:53:00
5:53 AM,53.1,48.0,83,29.71,10.0,NNE,5.8,-,N/A,,Overcast,20,2013-06-14 09:53:00
6:53 AM,54.0,48.0,80,29.74,10.0,NE,8.1,-,N/A,,Overcast,40,2013-06-14 10:53:00
7:53 AM,55.9,48.9,77,29.74,10.0,NE,4.6,-,N/A,,Overcast,50,2013-06-14 11:53:00
8:53 AM,57.0,50.0,77,29.77,10.0,Calm,Calm,-,N/A,,Overcast,0,2013-06-14 12:53:00
9:53 AM,57.9,48.0,70,29.79,10.0,NW,3.5,-,N/A,,Overcast,310,2013-06-14 13:53:00
10:53 AM,62.1,52.0,70,29.80,10.0,Variable,3.5,-,N/A,,Mostly Cloudy,0,2013-06-14 14:53:00
11:53 AM,64.9,55.0,70,29.79,10.0,Calm,Calm,-,N/A,,Mostly Cloudy,0,2013-06-14 15:53:00
12:53 PM,72.0,55.0,55,29.78,10.0,Variable,3.5,-,N/A,,Scattered Clouds,0,2013-06-14 16:53:00
1:53 PM,73.0,53.1,49,29.77,10.0,North,11.5,18.4,N/A,,Scattered Clouds,350,2013-06-14 17:53:00
2:53 PM,69.1,59.0,70,29.79,10.0,Calm,Calm,-,0.02,,Mostly Cloudy,0,2013-06-14 18:53:00
3:53 PM,64.9,59.0,81,29.80,2.5,NE,15.0,21.9,0.09,Rain,Rain,50,2013-06-14 19:53:00
3:56 PM,62.6,57.2,82,29.81,1.2,Variable,5.8,21.9,0.04,Rain,Heavy Rain,0,2013-06-14 19:56:00
4:01 PM,62.6,57.2,82,29.81,1.5,NW,4.6,21.9,0.05,Rain-Thunderstorm,Light Rain,320,2013-06-14 20:01:00
4:04 PM,62.6,57.2,82,29.81,3.0,Variable,3.5,-,0.05,Rain-Thunderstorm,Light Rain,0,2013-06-14 20:04:00
4:49 PM,62.6,60.8,94,29.81,1.8,Calm,Calm,-,0.10,,Overcast,0,2013-06-14 20:49:00
4:53 PM,62.1,60.1,93,29.81,1.0,Calm,Calm,-,0.12,Rain,Heavy Rain,0,2013-06-14 20:53:00
4:59 PM,62.6,60.8,94,29.83,1.8,North,8.1,-,0.02,Rain-Thunderstorm,Rain,350,2013-06-14 20:59:00
5:05 PM,62.6,60.8,94,29.84,3.0,Variable,6.9,-,0.04,Rain-Thunderstorm,Rain,0,2013-06-14 21:05:00
5:12 PM,62.6,57.2,82,29.82,2.5,ENE,5.8,18.4,0.07,Rain-Thunderstorm,Thunderstorms and Rain,60,2013-06-14 21:12:00
5:23 PM,62.6,59.0,88,29.84,6.0,Calm,Calm,-,0.09,Rain-Thunderstorm,Light Thunderstorms and Rain,0,2013-06-14 21:23:00
5:38 PM,62.6,59.0,88,29.85,10.0,North,3.5,-,0.09,,Mostly Cloudy,10,2013-06-14 21:38:00
5:53 PM,63.0,59.0,87,29.84,10.0,Calm,Calm,-,0.09,,Mostly Cloudy,0,2013-06-14 21:53:00
6:53 PM,62.1,57.9,86,29.85,5.0,Calm,Calm,-,0.02,Rain,Rain,0,2013-06-14 22:53:00
7:53 PM,62.1,59.0,90,29.86,10.0,Calm,Calm,-,0.01,,Mostly Cloudy,0,2013-06-14 23:53:00
8:53 PM,57.9,57.0,97,29.86,9.0,Calm,Calm,-,N/A,,Partly Cloudy,0,2013-06-15 00:53:00
9:53 PM,57.0,55.9,96,29.90,9.0,SSW,3.5,-,N/A,,Mostly Cloudy,210,2013-06-15 01:53:00
10:53 PM,55.9,55.0,97,29.91,7.0,Calm,Calm,-,N/A,,Clear,0,2013-06-15 02:53:00
11:53 PM,55.0,54.0,96,29.91,6.0,Calm,Calm,-,N/A,,Clear,0,2013-06-15 03:53:00